User: anonymous   Login
Location: Unspecified
(0.0000°N, 0.0000°E)
Time: 21:56:32
(UTC+00:00)
Language:

STARLINK-35880 - Orbit

View from above orbital plane
View from above orbital plane
View from above satellite
View from above satellite

Ground track
Ground track

The orbit is defined by the following mean orbital elements,

1 67187U          26145.55629781 +.00000000 +00000-0 +88188-3 0 00009
2 67187  42.9999 236.3704 0001110 292.0531  68.0203 15.27594582    00
Epoch (UTC): 25 May 2026 13:21:04
Eccentricity: 0.0001110
inclination: 42.9999°
perigee height: 482 km
apogee height: 484 km
right ascension of ascending node: 236.3704°
argument of perigee: 292.0531°
revolutions per day: 15.27594582
mean anomaly at epoch: 68.0203°

The dashed part of the orbit path shows where the satellite is in the earth's shadow,  

DLR